Wind_Speed
47 47 47 46 45 44 44 44 45 45 45 45 46 46 46 45 44 44 43 43 43 43 43 43 42 42 42 41 41 40 39 39 38 38 37 36 36 35
48 48 48 48 47 46 46 46 47 47 46 46 47 48 48 47 46 46 45 44 43 44 44 44 44 44 44 43 43 43 42 41 40 39 39 39 38 38
50 50 49 49 48 47 47 47 47 48 49 48 48 49 49 49 48 48 47 45 44 44 45 45 45 45 45 45 44 45 44 43 43 42 42 41 41 41
50 50 50 50 50 50 50 49 49 49 49 49 49 50 50 50 49 49 49 47 46 46 47 46 46 46 46 46 45 46 45 45 45 44 45 44 43 43
51 51 51 51 51 52 52 51 50 50 50 50 50 50 50 51 51 51 51 50 48 48 48 47 47 47 48 47 46 46 46 46 46 46 46 45 46 45
51 52 52 52 51 52 51 50 50 50 50 51 51 50 51 51 51 52 51 51 51 50 49 49 48 49 49 49 49 48 47 47 48 48 48 47 48 48
51 51 51 51 52 52 52 51 51 50 51 52 52 52 51 51 52 52 52 51 52 51 51 50 49 50 50 50 50 50 50 49 49 49 49 49 49 50
51 51 51 51 52 52 52 52 51 50 50 51 52 52 51 51 51 52 52 53 52 52 53 52 50 50 50 50 50 51 51 51 50 50 50 50 50 51
50 50 50 50 51 52 52 52 51 51 51 51 51 51 51 51 51 52 53 53 53 53 54 53 53 52 51 51 51 51 51 51 51 51 51 51 51 51
49 50 50 50 50 51 51 52 51 51 51 51 51 51 52 52 52 52 52 54 54 54 55 54 54 53 52 52 51 51 51 52 52 51 51 52 51 51
48 49 49 50 51 51 51 51 51 51 52 52 51 51 52 53 54 53 53 54 54 54 55 55 54 54 54 54 53 52 52 52 53 52 52 51 52 53
48 48 48 49 50 50 50 51 51 51 51 51 52 51 52 53 53 53 52 53 53 53 53 54 54 54 53 52 52 52 53 53 53 54 53 54 54 55
47 47 48 48 48 48 49 49 49 49 50 51 51 52 52 52 52 53 52 53 53 53 53 54 54 54 54 52 52 52 53 53 54 54 55 55 55 56
46 47 47 48 48 48 47 48 48 49 49 50 50 51 51 50 51 52 52 52 52 51 52 53 53 53 53 53 53 52 52 53 54 54 54 55 54 55
46 46 46 47 47 47 46 46 47 48 49 49 49 49 49 50 50 51 51 51 51 51 52 52 53 53 54 54 53 53 52 52 53 53 53 53 53 54
44 45 46 46 46 46 46 46 47 48 48 48 47 48 49 49 50 50 50 50 50 50 51 52 53 53 53 53 53 53 53 52 51 52 52 52 53 53
43 43 44 44 45 44 44 45 46 47 48 47 47 48 48 49 49 49 49 50 50 50 50 51 52 52 52 52 51 52 52 52 51 52 52 53 53 54
41 42 42 43 43 43 44 45 45 46 46 46 47 46 46 47 48 48 48 49 48 49 50 50 51 52 51 51 51 51 51 51 51 52 52 53 51 51
39 40 41 41 42 42 42 43 44 44 45 45 45 45 45 45 45 46 47 47 48 48 49 49 50 51 50 49 49 50 50 50 50 50 50 50 50 50
38 38 38 39 39 39 40 40 41 43 43 44 44 44 44 43 43 43 44 45 46 47 47 48 49 49 49 48 48 48 49 49 48 48 48 48 49 50
35 36 36 36 37 38 38 38 39 40 41 41 41 42 42 42 42 42 43 44 44 45 46 46 46 47 47 47 47 47 48 48 48 47 48 48 48 49
32 33 33 33 34 34 35 35 35 36 37 38 38 39 39 40 41 41 41 42 43 43 43 44 44 44 44 45 45 46 47 47 47 47 47 47 47 47
30 30 31 31 32 32 33 33 33 34 35 36 35 36 37 38 39 39 40 41 41 41 42 42 43 43 44 45 45 45 46 46 46 46 45 44 44 45
Wind_Direction
254 253 254 254 255 255 254 254 253 252 250 250 250 249 250 251 252 253 254 255 254 254 255 255 256 256 256 258 260 262 263 264 264 265 264 265 266 268
254 253 254 254 255 255 254 255 255 254 252 251 251 251 251 251 251 253 253 254 254 254 255 256 257 257 257 258 259 260 261 263 264 264 265 264 265 267
253 253 254 254 255 255 254 255 256 255 254 253 252 252 252 252 252 252 251 253 254 255 255 256 257 258 257 258 259 260 261 262 263 264 265 265 266 266
254 254 254 255 255 254 255 256 257 256 255 253 252 253 252 251 252 252 252 252 253 254 256 256 257 258 258 258 259 260 261 262 263 264 264 265 266 266
254 255 255 256 256 255 256 256 256 256 255 254 253 252 252 251 252 252 252 252 253 253 255 256 256 258 258 258 259 260 262 262 263 263 263 263 265 266
255 256 256 256 256 255 255 256 256 256 255 254 253 252 252 252 252 252 253 253 253 253 254 255 255 257 257 258 259 260 261 262 263 263 263 263 265 265
255 256 256 256 255 255 255 255 256 255 255 254 254 253 253 252 253 253 252 252 253 253 254 254 255 256 256 257 258 259 261 262 263 264 263 264 265 266
254 255 256 256 255 254 255 255 255 255 255 255 255 254 254 254 253 253 252 253 254 254 254 254 255 255 256 257 258 260 261 262 263 264 265 265 266 266
254 255 256 256 256 255 254 254 254 256 256 256 255 254 254 254 254 253 254 254 254 254 253 254 255 255 256 257 258 259 260 261 263 264 265 266 266 267
255 256 256 255 255 255 255 255 255 255 255 255 255 254 253 253 253 254 254 255 255 255 255 255 256 257 257 258 259 259 260 261 262 263 265 265 265 267
256 256 255 255 254 254 256 256 255 255 255 255 254 254 253 254 254 255 255 255 256 256 256 256 256 257 258 259 260 260 261 261 262 263 264 265 266 267
256 257 257 256 255 256 257 257 256 256 255 254 255 254 255 255 255 255 255 256 256 256 255 255 255 257 258 258 260 261 262 262 263 264 264 265 266 267
257 257 257 256 256 257 258 257 257 256 254 254 255 254 255 255 255 255 256 257 256 256 255 256 256 257 259 259 260 262 264 264 265 266 266 266 267 268
258 257 256 255 256 257 258 258 257 256 255 255 255 255 255 255 256 256 257 257 256 256 256 257 258 258 259 260 261 262 264 265 266 267 267 267 268 268
259 257 256 256 255 256 258 258 257 256 256 256 255 255 256 256 257 257 257 257 256 257 258 258 259 260 260 261 262 262 263 265 266 267 267 268 268 269
258 257 256 256 256 257 257 257 257 256 256 256 255 256 255 256 258 258 258 257 257 258 259 259 260 261 261 261 262 262 263 264 265 266 267 268 268 268
258 257 256 256 255 255 256 256 256 256 256 256 256 256 257 257 258 259 258 257 257 258 259 260 260 261 261 261 261 262 263 263 265 266 268 269 269 271
258 258 258 257 257 258 258 257 256 256 256 256 256 257 257 257 258 258 257 258 258 259 259 259 260 260 260 260 261 262 262 264 265 266 268 270 271 271
260 260 259 260 259 259 259 258 256 256 257 256 255 256 256 257 257 257 256 257 258 259 260 260 260 260 260 259 260 261 262 263 265 267 269 271 272 272
260 260 260 260 259 260 260 258 256 255 254 254 255 255 255 256 257 257 256 256 258 259 260 260 261 260 260 259 259 260 262 263 265 267 270 272 273 274
260 259 260 261 261 261 260 259 257 254 253 253 253 254 255 255 256 257 257 258 259 260 260 260 261 261 260 259 259 259 261 263 265 267 270 272 273 274
261 259 259 260 261 260 258 257 256 254 253 253 253 254 255 255 255 257 259 258 259 260 260 260 261 261 260 259 259 259 261 263 265 268 271 273 274 275
259 258 257 258 259 260 259 257 255 255 254 254 254 255 255 256 256 257 258 259 260 260 260 260 260 260 261 261 261 262 263 265 266 268 270 273 274 275
Height
5660 5663 5666 5668 5671 5675 5678 5681 5685 5689 5694 5697 5700 5703 5705 5709 5712 5715 5717 5720 5722 5725 5727 5730 5732 5734 5736 5738 5740 5741 5742 5744 5745 5746 5747 5747 5748 5748
5647 5650 5653 5656 5658 5661 5665 5668 5671 5675 5680 5685 5687 5690 5693 5696 5699 5702 5705 5707 5710 5713 5715 5718 5720 5722 5724 5726 5728 5730 5731 5733 5734 5735 5736 5737 5738 5738
5634 5637 5640 5642 5645 5648 5651 5654 5658 5661 5665 5671 5673 5676 5679 5683 5686 5689 5692 5695 5697 5700 5703 5705 5708 5710 5712 5714 5716 5717 5719 5721 5722 5723 5725 5726 5727 5728
5620 5623 5626 5629 5632 5634 5637 5640 5644 5647 5651 5655 5659 5662 5665 5668 5672 5675 5678 5681 5684 5687 5690 5692 5695 5697 5699 5701 5703 5705 5707 5708 5710 5711 5713 5714 5715 5715
5607 5610 5612 5615 5618 5621 5623 5626 5630 5633 5636 5640 5645 5648 5651 5654 5658 5661 5664 5668 5671 5674 5676 5679 5681 5683 5686 5688 5690 5692 5694 5696 5697 5699 5699 5701 5702 5703
5593 5595 5598 5600 5603 5606 5609 5612 5615 5617 5621 5624 5629 5633 5637 5640 5643 5646 5650 5653 5657 5660 5662 5665 5667 5669 5672 5675 5677 5679 5680 5682 5683 5685 5686 5687 5689 5690
5578 5581 5583 5586 5588 5591 5594 5597 5600 5602 5606 5609 5614 5618 5622 5625 5629 5632 5635 5638 5642 5645 5648 5651 5653 5656 5657 5660 5662 5664 5666 5668 5670 5671 5672 5673 5675 5676
5564 5567 5569 5572 5574 5576 5579 5582 5585 5588 5591 5595 5598 5603 5607 5610 5613 5616 5620 5623 5628 5632 5633 5636 5638 5641 5643 5646 5648 5650 5652 5654 5655 5657 5658 5659 5661 5662
5550 5553 5555 5558 5559 5562 5565 5567 5570 5573 5577 5580 5583 5588 5592 5596 5598 5602 5605 5608 5612 5615 5617 5621 5624 5627 5629 5631 5633 5635 5637 5639 5640 5642 5644 5645 5646 5647
5536 5538 5541 5544 5545 5548 5550 5553 5556 5559 5563 5565 5569 5574 5576 5579 5582 5586 5588 5592 5596 5599 5602 5606 5609 5612 5614 5617 5618 5620 5622 5624 5626 5627 5629 5630 5631 5632
5522 5524 5526 5529 5532 5533 5535 5538 5542 5545 5547 5550 5554 5557 5561 5564 5566 5570 5573 5576 5580 5584 5586 5590 5594 5596 5599 5602 5603 5605 5607 5608 5610 5611 5613 5614 5616 5617
5509 5510 5513 5515 5517 5519 5520 5523 5527 5531 5533 5536 5539 5542 5545 5548 5551 5554 5557 5560 5564 5568 5571 5574 5577 5579 5583 5586 5588 5589 5591 5593 5595 5596 5598 5599 5600 5601
5495 5497 5499 5501 5503 5505 5506 5509 5512 5515 5518 5520 5524 5527 5530 5533 5536 5539 5542 5545 5548 5552 5556 5558 5561 5564 5567 5571 5573 5574 5575 5577 5579 5581 5582 5583 5584 5585
5481 5484 5486 5487 5489 5491 5493 5495 5498 5500 5503 5506 5509 5512 5516 5519 5522 5525 5527 5530 5533 5537 5539 5542 5545 5549 5552 5555 5558 5560 5561 5562 5563 5565 5566 5567 5567 5568
5466 5469 5472 5473 5475 5478 5480 5482 5484 5486 5489 5492 5495 5498 5502 5505 5507 5509 5512 5515 5518 5521 5524 5527 5531 5533 5536 5540 5543 5544 5546 5547 5548 5549 5550 5551 5552 5552
5452 5455 5457 5459 5461 5464 5466 5469 5471 5473 5476 5479 5482 5485 5487 5490 5492 5495 5497 5500 5503 5507 5509 5512 5515 5518 5521 5524 5527 5529 5530 5532 5533 5534 5534 5535 5536 5536
5439 5442 5444 5446 5448 5451 5453 5455 5457 5460 5462 5465 5468 5471 5473 5476 5478 5481 5483 5486 5489 5492 5495 5498 5500 5502 5505 5508 5510 5513 5515 5516 5518 5518 5519 5520 5521 5520
5427 5429 5432 5433 5435 5437 5440 5442 5444 5447 5449 5452 5454 5457 5460 5462 5465 5467 5470 5472 5475 5478 5481 5483 5485 5487 5490 5493 5495 5498 5500 5502 5503 5503 5503 5504 5506 5505
5415 5417 5419 5421 5423 5424 5426 5428 5431 5433 5436 5439 5441 5444 5447 5449 5452 5454 5456 5459 5461 5464 5466 5468 5470 5473 5476 5480 5482 5483 5485 5486 5487 5488 5488 5489 5490 5491
5404 5406 5408 5409 5410 5412 5414 5415 5418 5420 5423 5426 5429 5431 5434 5436 5439 5441 5443 5446 5448 5450 5453 5455 5457 5460 5463 5466 5469 5470 5470 5472 5473 5474 5474 5474 5475 5475
5394 5395 5397 5398 5399 5400 5402 5404 5406 5408 5411 5414 5416 5419 5421 5424 5427 5429 5431 5433 5435 5437 5439 5442 5444 5447 5449 5451 5454 5456 5457 5457 5459 5460 5460 5460 5460 5460
5384 5385 5386 5388 5389 5390 5391 5393 5395 5397 5400 5402 5405 5407 5410 5412 5415 5417 5419 5421 5423 5425 5427 5430 5431 5433 5435 5437 5440 5442 5444 5444 5445 5445 5445 5445 5445 5446
5375 5376 5377 5378 5380 5381 5382 5384 5386 5388 5390 5393 5395 5397 5399 5401 5403 5405 5407 5409 5411 5413 5415 5417 5418 5420 5422 5424 5427 5429 5430 5431 5431 5432 5432 5432 5432 5432